Location: Newark
(49.3808°N, 3.1844°E)
Time: 05:08:44
(UTC+00:00)

Vanguard 1 Rocket - Pass Details

Date: 20 November 2019
Orbit: 650 x 4226 km, 34.3° (Epoch: 07 December)

Event Time Altitude Azimuth Distance (km) Brightness Sun altitude
Rises 07:50:03 0° 246° (WSW) 3,391 10.1 5.2°
Reaches altitude 10° 07:54:40 10° 210° (SSW) 2,942 10.2 5.8°
Maximum altitude 07:56:27 11° 195° (SSW) 3,080 10.5 6.0°
Drops below altitude 10° 07:58:27 10° 181° (S) 3,406 11.0 6.2°
Sets 08:05:46 0° 151° (SSE) 5,344 13.0 7.1°
